Powrót do katalogu

COSMOS 886 DEB

AktywnyLEO
NORAD 9822·DEBRIS·🇷🇺 Russia

Wystrzelony Dec 27, 1976 z Baikonur Cosmodrome

Loading…

Następne Przeloty (najbliższe 24 godziny)

TLE

ŚwieżeSource: Space-Track

Epoka: Sep 13, 2026, 07:59 UTC

1 09822U 76126AJ  26256.33275082  .00000684  00000-0  35755-3 0  9990
2 09822  65.7786 221.8954 0911111  53.1998 314.9166 12.96808592318879

Śledź COSMOS 886 DEB w czasie rzeczywistym z AllMySat

Download on the App Store